SCP
0 0 0 0 0 0 0 0 0 0 0 0 0 0 0 1 1 1 1 1 1 1 1 1 1 1 1 1 0 0 1 1 1 1 2 2 2 1 1 0 0 0 0 0
0 0 0 0 0 0 0 0 0 0 0 0 0 0 0 1 1 1 1 1 1 1 1 1 1 1 1 1 1 1 1 1 1 1 2 2 2 1 1 0 0 0 0 0
0 0 0 0 0 0 0 0 0 0 0 0 0 0 0 1 1 1 1 1 1 1 1 1 1 1 1 1 1 1 1 1 1 1 1 2 2 2 1 1 0 0 0 0
0 0 0 0 0 0 0 0 0 0 0 0 0 0 0 1 1 1 1 1 1 1 1 1 2 1 1 1 1 1 1 1 1 1 1 2 2 2 1 1 0 0 0 0
0 0 0 0 0 0 0 0 0 0 0 0 0 0 0 1 1 1 1 1 1 1 1 1 2 1 1 1 1 1 1 1 1 1 1 2 2 2 1 1 1 0 0 1
0 0 0 0 0 0 0 0 0 0 0 0 0 0 0 0 1 1 1 1 1 1 1 1 2 1 1 1 1 1 1 1 1 1 1 1 2 1 1 1 1 1 1 1
0 0 0 0 0 0 0 0 0 0 0 0 0 0 0 1 1 1 1 1 1 1 1 2 2 2 2 1 1 1 1 1 1 1 1 1 1 1 1 1 1 1 1 2
0 0 0 0 0 0 0 0 0 0 0 0 0 0 0 1 1 1 1 1 1 1 1 2 2 2 2 2 2 2 2 2 1 1 1 1 1 1 1 1 1 1 2 2
0 0 0 0 0 0 0 0 0 0 0 0 0 0 0 0 0 0 1 1 1 1 1 2 2 3 3 3 2 2 2 2 2 1 1 1 1 2 2 2 2 2 1 1
0 0 0 0 0 0 0 0 0 0 0 0 0 0 0 0 0 0 0 1 1 1 1 2 2 3 3 3 2 2 2 2 2 1 1 1 2 2 2 2 2 2 1 1
0 0 0 0 0 0 0 0 0 0 0 0 0 0 0 0 0 0 0 1 2 2 2 2 2 2 2 2 2 2 2 1 1 1 1 2 2 2 2 2 2 2 2 2
0 0 0 0 0 0 0 0 0 0 0 0 0 0 0 0 0 0 1 2 2 2 2 2 2 2 1 1 2 2 2 2 2 2 1 2 2 3 3 2 2 2 2 2
0 0 0 0 0 0 0 0 0 0 0 0 0 0 0 0 0 0 1 2 2 2 2 2 2 2 2 1 2 2 2 2 2 2 2 2 2 2 2 2 2 2 2 2
0 0 0 0 0 0 0 0 0 0 0 0 0 0 0 0 0 1 1 2 2 2 2 2 2 2 2 2 2 2 2 2 2 2 2 2 2 2 2 2 2 1 1 2
0 0 0 0 0 0 0 0 0 0 0 0 0 0 0 0 1 1 1 2 2 2 2 2 2 2 2 2 2 2 2 2 2 2 3 3 3 2 1 1 1 1 1 1
0 0 0 0 0 0 0 0 0 0 0 0 0 0 0 0 1 1 1 2 2 2 1 2 2 2 2 2 2 2 2 2 2 2 3 3 2 2 1 1 1 1 1 1
0 0 0 0 0 0 0 0 0 0 0 0 0 0 0 0 0 0 1 1 1 1 1 2 2 2 2 3 3 3 2 2 2 2 2 2 2 1 1 1 1 1 1 1
0 0 0 0 0 0 0 0 0 0 0 0 0 0 0 1 1 1 1 1 1 1 1 2 2 3 3 3 3 3 3 2 2 2 2 2 2 1 1 1 1 1 1 1
0 0 0 0 0 0 0 0 0 0 0 0 0 1 1 1 1 1 2 2 2 2 2 2 3 3 3 3 3 3 3 2 2 2 2 2 2 2 2 1 1 1 1 1
0 0 0 0 0 0 0 0 0 0 0 0 0 0 1 1 1 1 2 2 2 2 2 2 3 3 3 3 4 4 3 3 3 2 2 2 2 2 2 2 2 2 1 1
0 0 0 0 0 0 0 0 0 0 0 0 0 0 0 0 1 1 1 2 2 2 2 2 2 2 2 3 4 4 4 4 3 3 2 2 2 2 2 3 3 3 2 2
0 0 0 0 0 0 0 0 0 0 0 0 0 0 0 0 1 1 1 1 1 1 1 1 1 2 2 2 3 4 4 4 4 3 3 3 3 3 3 3 4 3 3 2
0 0 0 0 0 0 0 0 0 0 0 0 0 0 0 0 1 1 1 1 1 1 1 1 1 1 1 2 2 2 2 3 4 5 4 3 3 3 3 4 4 3 3 3
0 0 0 0 0 0 0 0 0 0 0 0 0 0 0 1 1 1 1 1 1 1 1 1 1 1 2 2 2 2 2 3 5 6 5 4 4 3 3 3 3 3 3 3
0 0 0 0 0 0 0 0 0 0 0 0 0 0 0 1 1 1 1 1 0 0 1 1 1 1 2 2 2 3 3 4 5 5 5 4 4 3 3 3 2 2 3 3
0 0 0 0 0 0 0 0 0 0 0 0 0 0 0 1 1 1 1 0 0 0 0 1 1 1 1 1 2 3 4 4 5 5 4 4 4 3 3 2 2 2 2 2
Wind_Speed
5 5 4 3 4 5 5 3 2 1 2 2 3 4 5 7 7 6 7 7 8 8 8 6 5 5 4 4 4 5 4 4 3 2 2 2 1 1 2 2 2 2 3 3
5 6 4 3 3 4 6 4 2 1 1 2 3 4 5 7 8 7 7 7 8 8 8 7 6 5 5 4 4 5 4 4 3 2 2 2 2 1 1 1 2 2 2 2
7 3 2 4 5 5 6 4 3 2 2 5 5 5 6 7 7 6 6 6 7 8 9 9 7 6 5 4 4 3 4 4 4 3 2 2 2 1 1 1 1 1 2 2
5 4 3 4 5 5 5 3 4 5 5 4 5 3 3 7 6 5 5 5 5 6 7 7 7 6 5 4 4 4 4 4 4 4 3 3 2 2 2 2 2 1 2 1
4 3 3 5 5 5 4 4 6 8 6 7 8 6 3 6 6 6 6 6 6 6 7 8 7 6 5 4 4 3 3 4 4 4 4 2 1 1 2 2 2 2 1 2
5 3 2 4 4 5 4 6 9 8 6 7 9 6 1 3 4 5 6 6 6 7 6 6 7 6 5 4 4 3 3 3 3 3 4 4 3 2 2 2 2 2 1 1
6 5 4 4 6 6 6 5 3 4 4 4 4 3 2 4 4 4 5 6 6 6 6 6 7 7 5 5 4 4 3 3 3 3 3 3 4 3 3 2 2 2 2 2
5 5 6 5 6 5 6 7 4 3 3 2 2 1 4 6 5 5 5 5 5 5 5 6 6 6 6 6 5 5 4 3 3 3 2 3 3 2 2 2 2 2 2 2
5 2 3 4 4 5 6 6 7 7 8 6 2 2 5 5 5 5 5 5 4 5 5 5 5 6 6 6 5 5 5 4 3 3 2 2 3 2 2 2 1 1 1 2
7 5 3 2 4 6 7 6 4 4 4 4 3 1 2 4 3 4 5 4 4 4 5 5 4 4 5 5 5 5 5 5 4 3 3 2 2 3 2 1 2 1 1 1
7 6 4 4 4 5 5 6 6 4 4 3 2 1 3 4 3 4 4 4 4 4 4 5 4 3 3 4 5 4 4 4 3 3 3 3 3 3 3 2 2 2 1 1
6 5 6 5 4 4 6 6 6 4 4 4 3 0 4 4 4 4 3 4 4 4 4 5 5 4 3 3 4 4 3 3 3 2 2 3 3 3 3 3 2 2 2 2
6 6 6 4 3 3 4 6 6 5 4 4 4 1 2 4 4 3 3 3 3 3 4 4 4 3 3 3 3 3 3 3 2 2 2 2 2 2 3 2 2 2 2 2
4 6 6 6 4 3 5 5 5 4 3 5 4 2 2 0 2 2 3 3 3 3 3 3 3 3 3 3 2 2 2 2 2 2 2 2 2 2 2 2 2 2 2 1
5 7 8 7 6 5 7 7 6 6 6 6 5 4 3 1 1 2 2 2 2 2 2 2 2 2 2 2 2 2 2 2 2 3 3 3 2 2 2 2 2 2 2 1
5 7 8 9 9 7 8 8 8 8 8 7 7 5 3 3 2 2 2 2 2 1 1 0 2 2 3 2 2 2 2 2 2 3 3 2 2 2 2 2 2 2 1 1
6 7 8 7 8 8 8 7 7 7 6 5 6 3 2 3 2 1 2 2 1 1 1 1 1 1 2 3 3 3 3 3 3 3 3 3 3 3 3 3 2 2 2 2
8 8 6 7 8 10 2 2 2 3 4 4 4 3 3 3 2 2 2 3 3 2 2 2 1 1 1 1 1 2 3 3 3 3 3 4 4 4 3 3 3 2 2 2
7 7 6 6 7 7 3 1 3 4 3 3 3 3 4 4 2 1 3 4 3 3 3 3 3 2 1 1 1 1 2 2 2 2 2 3 4 4 4 3 3 3 2 2
7 7 6 6 7 6 1 3 4 4 3 3 3 3 4 4 3 1 3 3 4 4 3 3 3 3 2 2 1 1 1 1 2 2 2 2 3 4 5 4 4 3 2 2
5 6 7 8 9 4 2 3 3 3 2 4 4 3 3 3 3 2 3 3 3 2 2 2 2 3 3 2 1 2 2 2 1 1 1 2 2 3 4 4 3 3 3 3
5 5 6 6 7 4 3 2 2 3 5 5 5 4 4 5 4 3 3 3 3 2 2 2 2 2 2 2 1 2 2 1 1 1 2 2 2 3 3 3 3 3 3 3
4 4 3 3 2 2 2 2 4 5 5 5 5 4 4 4 4 3 3 3 3 3 3 3 2 2 2 2 2 2 3 1 1 1 2 2 2 2 2 3 3 3 3 3
5 5 5 5 4 2 2 3 4 5 5 5 5 5 4 3 4 4 3 3 3 3 3 3 3 3 3 2 2 3 3 2 2 2 2 2 2 2 2 2 3 3 3 3
6 6 7 8 6 4 3 3 4 5 5 5 5 5 4 4 4 4 3 3 2 3 3 3 3 4 4 2 2 2 2 2 2 3 2 2 3 3 3 2 2 3 3 4
7 8 8 7 5 5 4 4 5 5 5 4 5 5 5 5 4 4 4 3 3 2 3 3 4 4 5 4 3 2 2 3 3 3 3 2 2 2 2 2 2 3 4 5
Wind_Direction
217 238 244 254 248 270 281 271 260 184 151 216 223 213 186 182 188 189 186 180 176 176 168 163 160 158 159 152 144 134 141 141 127 122 109 107 98 78 77 85 88 67 65 76
238 241 255 273 278 265 268 266 256 176 178 239 239 239 210 184 193 191 193 186 181 176 167 163 164 164 164 158 149 144 145 143 131 122 123 131 119 107 99 73 68 77 78 75
241 258 244 255 251 255 264 263 262 246 254 253 258 254 216 179 186 183 188 181 177 178 171 164 168 168 164 159 150 149 158 148 138 135 119 109 101 93 114 121 88 64 93 94
248 245 252 257 260 250 266 270 265 256 255 261 242 260 219 175 171 171 179 176 175 169 163 158 161 160 164 163 151 163 164 152 145 143 148 158 157 157 161 142 136 149 133 120
255 237 243 255 260 265 260 271 268 265 263 270 261 254 214 167 175 176 176 173 171 164 163 159 156 156 157 153 151 169 157 151 150 156 145 153 144 158 152 130 146 160 150 152
261 265 263 274 268 259 262 263 261 257 258 258 248 240 228 162 172 167 166 168 167 164 159 153 152 151 155 145 142 142 141 140 146 156 155 164 157 162 159 157 166 164 155 163
236 227 229 244 259 237 241 257 266 239 221 242 232 223 120 94 93 116 141 153 153 155 155 156 155 156 156 147 150 152 147 143 149 160 161 166 167 176 172 166 178 177 169 168
253 229 206 213 240 251 238 238 248 276 277 295 265 173 111 100 90 96 108 121 138 145 150 154 157 157 158 156 160 162 159 160 164 168 169 161 158 164 159 174 185 181 171 167
301 275 182 192 234 261 264 249 259 274 286 285 241 141 119 100 100 102 107 115 131 146 146 149 150 153 157 161 165 166 160 161 170 180 176 167 155 152 159 169 173 166 173 174
295 296 258 213 230 232 257 288 287 270 280 274 260 217 147 131 123 110 108 112 122 138 146 146 147 150 161 164 167 171 167 174 179 178 176 175 163 153 155 156 162 170 183 178
296 283 257 228 234 256 233 242 254 264 264 278 290 29 80 113 124 114 110 119 127 130 142 144 144 147 153 157 160 165 169 170 175 182 182 175 176 166 165 181 181 187 174 171
296 286 269 241 234 256 276 270 262 262 275 272 274 301 74 92 91 79 82 104 118 128 137 141 143 149 155 154 154 160 165 164 169 177 178 180 176 171 177 192 185 187 185 178
331 294 276 250 225 231 253 265 278 279 275 271 266 209 137 115 105 100 97 102 108 117 127 137 138 147 156 158 157 162 161 164 169 168 169 174 176 178 186 190 184 196 189 170
295 281 280 282 306 310 284 276 278 279 273 276 272 258 254 65 80 96 96 97 110 120 120 122 134 149 157 162 164 162 162 164 171 167 164 177 189 184 183 180 184 196 187 179
266 271 275 280 283 287 290 288 280 269 266 270 287 292 291 329 57 59 88 92 85 81 106 132 144 150 155 167 166 158 168 181 181 177 182 188 183 173 163 166 182 194 193 190
260 274 277 274 269 264 272 271 269 272 272 274 280 288 322 350 29 36 34 50 57 48 7 160 177 173 171 182 180 176 184 196 196 193 187 175 170 159 154 164 182 182 168 180
265 270 281 274 273 271 260 261 254 254 266 280 289 307 343 338 344 360 6 4 42 55 348 316 276 203 196 202 196 197 194 196 198 198 188 183 177 171 171 180 189 181 173 195
281 285 279 275 272 261 267 0 324 294 301 311 311 328 339 339 354 24 32 18 24 36 353 330 334 355 298 272 231 209 191 193 205 204 196 188 178 178 177 180 187 185 185 198
254 267 273 272 270 269 257 308 319 298 292 348 338 348 342 339 331 49 36 33 24 24 25 3 342 329 312 299 294 256 208 196 204 212 208 194 182 180 182 186 192 192 190 200
237 247 256 266 266 263 319 18 351 297 261 38 12 346 337 336 305 342 23 27 23 19 9 2 339 318 308 289 283 269 238 217 224 217 215 200 186 186 188 191 195 194 195 201
223 231 239 255 262 269 352 355 335 286 355 18 4 1 350 329 331 344 359 9 6 6 354 346 335 328 318 317 303 274 249 247 249 234 225 210 193 190 192 191 192 192 199 205
257 250 244 252 255 255 29 348 323 337 349 352 352 354 345 338 344 345 351 353 348 347 340 333 333 334 335 332 318 300 276 259 240 226 220 213 205 207 200 184 190 194 195 202
260 277 294 283 286 34 26 356 353 346 341 345 345 338 330 328 324 325 333 332 335 343 338 340 338 332 331 329 321 301 296 286 262 232 224 218 208 203 196 190 195 195 190 196
286 299 287 283 282 299 319 335 341 341 336 334 333 328 319 310 313 321 325 326 333 342 341 337 328 320 315 310 306 290 293 279 261 242 228 223 218 221 213 201 202 197 191 198
295 296 286 281 287 293 292 321 334 338 338 340 339 333 320 310 308 311 309 310 325 337 339 332 322 316 309 301 296 302 302 285 265 257 244 231 219 220 221 217 215 210 203 198
266 269 267 275 298 300 306 330 334 325 322 333 333 324 320 319 316 322 321 321 328 330 330 323 319 318 316 315 304 301 302 287 271 262 253 245 237 223 216 213 233 236 226 221